Wetterdaten: Woche 17.12.18 - 23.12.18 (KW51)
Datum Zeit Temperatur Luftfeuchte Luftdruck Niederschlag Windrichtung Sonnenschein Solar Wind
17.12.2018 00:00 0,2 C 97 % 1015,6 hPa 0,0 l/m N 0,00 h 0 W/m 0,1 km/h (0 Bft)
17.12.2018 01:00 -0,5 C 97 % 1015,6 hPa 0,0 l/m N 0,00 h 0 W/m 0,0 km/h (0 Bft)
17.12.2018 02:00 -1,1 C 97 % 1016,2 hPa 0,0 l/m N 0,00 h 0 W/m 0,0 km/h (0 Bft)
17.12.2018 03:00 -1,3 C 97 % 1016,7 hPa 0,0 l/m N 0,00 h 0 W/m 0,0 km/h (0 Bft)
17.12.2018 04:00 -1,5 C 98 % 1017,2 hPa 0,0 l/m SW 0,00 h 0 W/m 1,2 km/h (1 Bft)
17.12.2018 05:00 -1,7 C 98 % 1018,0 hPa 0,0 l/m SW 0,00 h 0 W/m 0,5 km/h (0 Bft)
17.12.2018 06:00 -1,6 C 98 % 1019,1 hPa 0,0 l/m SW 0,00 h 0 W/m 1,9 km/h (1 Bft)
17.12.2018 07:00 -1,3 C 98 % 1019,8 hPa 0,0 l/m SW 0,00 h 0 W/m 1,5 km/h (1 Bft)
17.12.2018 08:00 -1,0 C 98 % 1020,7 hPa 0,0 l/m SW 0,00 h 11 W/m 1,6 km/h (1 Bft)
17.12.2018 09:00 -0,6 C 98 % 1021,7 hPa 0,0 l/m SW 0,00 h 53 W/m 2,5 km/h (1 Bft)
17.12.2018 10:00 0,1 C 99 % 1022,7 hPa 0,0 l/m SW 0,00 h 93 W/m 6,1 km/h (2 Bft)
17.12.2018 11:00 0,5 C 99 % 1022,9 hPa 0,0 l/m SW 0,00 h 93 W/m 7,8 km/h (2 Bft)
17.12.2018 12:00 0,9 C 99 % 1023,0 hPa 0,0 l/m SW 0,08 h 117 W/m 6,7 km/h (2 Bft)
17.12.2018 13:00 1,4 C 99 % 1023,1 hPa 0,0 l/m SW 0,17 h 120 W/m 7,8 km/h (2 Bft)
17.12.2018 14:00 1,6 C 99 % 1023,7 hPa 0,0 l/m SW 0,08 h 70 W/m 11,8 km/h (2 Bft)
17.12.2018 15:00 1,4 C 99 % 1024,5 hPa 0,0 l/m SW 0,00 h 33 W/m 10,1 km/h (2 Bft)
17.12.2018 16:00 1,9 C 99 % 1025,3 hPa 0,0 l/m SW 0,17 h 13 W/m 6,7 km/h (2 Bft)
17.12.2018 17:00 2,3 C 99 % 1026,2 hPa 0,0 l/m SW 0,00 h 0 W/m 4,7 km/h (1 Bft)
17.12.2018 18:00 1,9 C 99 % 1026,8 hPa 0,0 l/m N 0,00 h 0 W/m 0,3 km/h (0 Bft)
17.12.2018 19:00 1,9 C 99 % 1027,6 hPa 0,0 l/m SW 0,00 h 0 W/m 4,7 km/h (1 Bft)
17.12.2018 20:00 1,3 C 99 % 1028,1 hPa 0,0 l/m SW 0,00 h 0 W/m 5,5 km/h (1 Bft)
17.12.2018 21:00 1,3 C 99 % 1028,3 hPa 0,0 l/m N 0,00 h 0 W/m 0,0 km/h (0 Bft)
17.12.2018 22:00 1,3 C 99 % 1028,7 hPa 0,0 l/m N 0,00 h 0 W/m 0,0 km/h (0 Bft)
17.12.2018 23:00 1,3 C 99 % 1028,9 hPa 0,0 l/m N 0,00 h 0 W/m 0,0 km/h (0 Bft)
18.12.2018 00:00 1,3 C 99 % 1028,6 hPa 0,0 l/m N 0,00 h 0 W/m 0,0 km/h (0 Bft)
18.12.2018 01:00 1,3 C 99 % 1028,5 hPa 0,0 l/m N 0,00 h 0 W/m 0,0 km/h (0 Bft)
18.12.2018 02:00 0,9 C 99 % 1028,5 hPa 0,0 l/m N 0,00 h 0 W/m 0,0 km/h (0 Bft)
18.12.2018 03:00 0,1 C 99 % 1028,2 hPa 0,0 l/m N 0,00 h 0 W/m 0,0 km/h (0 Bft)
18.12.2018 04:00 -0,4 C 99 % 1027,8 hPa 0,0 l/m N 0,00 h 0 W/m 0,0 km/h (0 Bft)
18.12.2018 05:00 -0,7 C 98 % 1027,4 hPa 0,0 l/m N 0,00 h 0 W/m 0,0 km/h (0 Bft)
18.12.2018 06:00 -1,3 C 98 % 1027,4 hPa 0,0 l/m SW 0,00 h 0 W/m 0,8 km/h (0 Bft)
18.12.2018 07:00 -2,4 C 98 % 1027,7 hPa 0,0 l/m N 0,00 h 0 W/m 0,0 km/h (0 Bft)
18.12.2018 08:00 -2,7 C 98 % 1027,6 hPa 0,0 l/m N 0,08 h 15 W/m 0,0 km/h (0 Bft)
18.12.2018 09:00 -2,5 C 98 % 1027,1 hPa 0,0 l/m N 0,00 h 64 W/m 0,0 km/h (0 Bft)
18.12.2018 10:00 -1,9 C 99 % 1026,7 hPa 0,0 l/m SW 0,75 h 190 W/m 0,8 km/h (0 Bft)
18.12.2018 11:00 -0,8 C 99 % 1025,8 hPa 0,0 l/m N 1,00 h 313 W/m 1,5 km/h (1 Bft)
18.12.2018 12:00 -0,2 C 98 % 1024,7 hPa 0,0 l/m SW 0,92 h 272 W/m 1,7 km/h (1 Bft)
18.12.2018 13:00 -0,1 C 98 % 1023,1 hPa 0,0 l/m SW 0,42 h 160 W/m 2,0 km/h (1 Bft)
18.12.2018 14:00 0,0 C 99 % 1022,5 hPa 0,0 l/m SW 0,33 h 124 W/m 6,8 km/h (2 Bft)
18.12.2018 15:00 -0,2 C 99 % 1022,2 hPa 0,0 l/m NW 0,33 h 64 W/m 5,7 km/h (1 Bft)
18.12.2018 16:00 -0,5 C 99 % 1022,0 hPa 0,0 l/m NW 0,00 h 11 W/m 1,5 km/h (1 Bft)
18.12.2018 17:00 -0,9 C 99 % 1021,7 hPa 0,0 l/m NW 0,00 h 0 W/m 3,2 km/h (1 Bft)
18.12.2018 18:00 -1,1 C 99 % 1021,1 hPa 0,0 l/m N 0,00 h 0 W/m 0,0 km/h (0 Bft)
18.12.2018 19:00 -1,3 C 99 % 1021,0 hPa 0,0 l/m NW 0,00 h 0 W/m 2,1 km/h (1 Bft)
18.12.2018 20:00 -1,5 C 99 % 1020,5 hPa 0,0 l/m NW 0,00 h 0 W/m 4,3 km/h (1 Bft)
18.12.2018 21:00 -1,7 C 99 % 1020,2 hPa 0,0 l/m N 0,00 h 0 W/m 0,7 km/h (0 Bft)
18.12.2018 22:00 -1,8 C 99 % 1019,8 hPa 0,0 l/m N 0,00 h 0 W/m 0,8 km/h (0 Bft)
18.12.2018 23:00 -1,9 C 99 % 1019,5 hPa 0,0 l/m N 0,00 h 0 W/m 0,3 km/h (0 Bft)
19.12.2018 00:00 -2,1 C 99 % 1019,1 hPa 0,0 l/m NW 0,00 h 0 W/m 1,1 km/h (0 Bft)
19.12.2018 01:00 -2,5 C 98 % 1019,4 hPa 0,0 l/m W-NW 0,00 h 0 W/m 6,8 km/h (2 Bft)
19.12.2018 02:00 -2,7 C 99 % 1019,1 hPa 0,0 l/m SW 0,00 h 0 W/m 8,5 km/h (2 Bft)
19.12.2018 03:00 -2,3 C 99 % 1019,2 hPa 0,0 l/m SW 0,00 h 0 W/m 6,3 km/h (2 Bft)
19.12.2018 04:00 -1,5 C 99 % 1019,0 hPa 0,0 l/m SW 0,00 h 0 W/m 5,5 km/h (1 Bft)
19.12.2018 05:00 -1,2 C 99 % 1019,0 hPa 0,0 l/m SW 0,00 h 0 W/m 6,8 km/h (2 Bft)
19.12.2018 06:00 -1,1 C 99 % 1019,1 hPa 0,0 l/m SW 0,00 h 0 W/m 5,2 km/h (1 Bft)
19.12.2018 07:00 -1,1 C 99 % 1019,4 hPa 0,0 l/m N 0,00 h 0 W/m 0,0 km/h (0 Bft)
19.12.2018 08:00 -1,0 C 99 % 1019,4 hPa 0,0 l/m N 0,00 h 12 W/m 0,0 km/h (0 Bft)
19.12.2018 09:00 -0,7 C 99 % 1019,3 hPa 0,0 l/m N 0,00 h 27 W/m 0,0 km/h (0 Bft)
19.12.2018 10:00 -0,2 C 99 % 1019,5 hPa 0,0 l/m N 0,00 h 54 W/m 0,0 km/h (0 Bft)
19.12.2018 11:00 0,5 C 99 % 1019,0 hPa 0,0 l/m N 0,00 h 87 W/m 0,0 km/h (0 Bft)
19.12.2018 12:00 1,0 C 99 % 1018,1 hPa 0,0 l/m N 0,00 h 74 W/m 0,0 km/h (0 Bft)
19.12.2018 13:00 1,3 C 99 % 1017,6 hPa 0,0 l/m N 0,00 h 48 W/m 0,0 km/h (0 Bft)
19.12.2018 14:00 1,6 C 99 % 1017,1 hPa 0,0 l/m N 0,00 h 48 W/m 0,0 km/h (0 Bft)
19.12.2018 15:00 1,7 C 99 % 1016,2 hPa 0,0 l/m N 0,42 h 66 W/m 0,0 km/h (0 Bft)
19.12.2018 16:00 1,7 C 99 % 1015,5 hPa 0,0 l/m SW 0,00 h 9 W/m 2,7 km/h (1 Bft)
19.12.2018 17:00 1,3 C 98 % 1015,9 hPa 0,0 l/m W 0,00 h 0 W/m 3,5 km/h (1 Bft)
19.12.2018 18:00 1,3 C 98 % 1016,3 hPa 0,0 l/m N 0,00 h 0 W/m 0,8 km/h (0 Bft)
19.12.2018 19:00 1,3 C 98 % 1017,0 hPa 0,2 l/m W 0,00 h 0 W/m 1,3 km/h (1 Bft)
19.12.2018 20:00 1,3 C 98 % 1017,2 hPa 0,8 l/m W 0,00 h 0 W/m 8,4 km/h (2 Bft)
19.12.2018 21:00 1,3 C 98 % 1017,0 hPa 0,2 l/m W-SW 0,00 h 0 W/m 3,8 km/h (1 Bft)
19.12.2018 22:00 1,3 C 98 % 1016,8 hPa 0,0 l/m W-SW 0,00 h 0 W/m 1,6 km/h (1 Bft)
19.12.2018 23:00 1,6 C 99 % 1016,8 hPa 0,4 l/m W-SW 0,00 h 0 W/m 9,3 km/h (2 Bft)
20.12.2018 00:00 1,7 C 99 % 1016,7 hPa 0,4 l/m W-SW 0,00 h 0 W/m 10,6 km/h (2 Bft)
20.12.2018 01:00 1,8 C 99 % 1016,5 hPa 0,0 l/m SW 0,00 h 0 W/m 12,5 km/h (3 Bft)
20.12.2018 02:00 1,7 C 99 % 1016,7 hPa 0,0 l/m SW 0,00 h 0 W/m 10,5 km/h (2 Bft)
20.12.2018 03:00 1,8 C 99 % 1017,2 hPa 0,0 l/m SW 0,00 h 0 W/m 9,8 km/h (2 Bft)
20.12.2018 04:00 2,0 C 99 % 1017,1 hPa 0,0 l/m SW 0,00 h 0 W/m 12,6 km/h (3 Bft)
20.12.2018 05:00 2,0 C 99 % 1017,1 hPa 0,0 l/m SW 0,00 h 0 W/m 11,3 km/h (2 Bft)
20.12.2018 06:00 2,1 C 99 % 1017,6 hPa 0,0 l/m SW 0,00 h 0 W/m 10,1 km/h (2 Bft)
20.12.2018 07:00 2,1 C 99 % 1017,9 hPa 0,0 l/m SW 0,00 h 0 W/m 9,1 km/h (2 Bft)
20.12.2018 08:00 1,8 C 99 % 1018,3 hPa 0,0 l/m SW 0,00 h 19 W/m 9,1 km/h (2 Bft)
20.12.2018 09:00 2,4 C 99 % 1018,5 hPa 0,0 l/m SW 0,58 h 109 W/m 14,0 km/h (3 Bft)
20.12.2018 10:00 3,6 C 99 % 1019,1 hPa 0,0 l/m SW 0,92 h 214 W/m 14,4 km/h (3 Bft)
20.12.2018 11:00 4,7 C 95 % 1019,1 hPa 0,0 l/m W-SW 1,00 h 270 W/m 20,2 km/h (4 Bft)
20.12.2018 12:00 5,6 C 89 % 1018,5 hPa 0,0 l/m W-SW 1,00 h 330 W/m 26,1 km/h (4 Bft)
20.12.2018 13:00 6,3 C 83 % 1018,3 hPa 0,0 l/m W-SW 0,67 h 248 W/m 25,5 km/h (4 Bft)
20.12.2018 14:00 5,8 C 84 % 1018,3 hPa 0,0 l/m SW 0,25 h 115 W/m 18,2 km/h (3 Bft)
20.12.2018 15:00 5,6 C 84 % 1018,6 hPa 0,0 l/m W-SW 0,17 h 52 W/m 20,9 km/h (4 Bft)
20.12.2018 16:00 4,9 C 86 % 1019,0 hPa 0,0 l/m W-SW 0,08 h 10 W/m 15,0 km/h (3 Bft)
20.12.2018 17:00 4,2 C 89 % 1019,3 hPa 0,0 l/m W-SW 0,00 h 0 W/m 7,5 km/h (2 Bft)
20.12.2018 18:00 3,6 C 91 % 1019,5 hPa 0,0 l/m W-SW 0,00 h 0 W/m 5,1 km/h (1 Bft)
20.12.2018 19:00 3,6 C 92 % 1019,9 hPa 0,0 l/m W-SW 0,00 h 0 W/m 14,5 km/h (3 Bft)
20.12.2018 20:00 4,1 C 91 % 1020,0 hPa 0,0 l/m W-SW 0,00 h 0 W/m 20,6 km/h (4 Bft)
20.12.2018 21:00 4,1 C 90 % 1019,8 hPa 0,0 l/m SW 0,00 h 0 W/m 13,5 km/h (3 Bft)
20.12.2018 22:00 3,3 C 92 % 1020,1 hPa 0,0 l/m W-SW 0,00 h 0 W/m 14,9 km/h (3 Bft)
20.12.2018 23:00 4,0 C 91 % 1020,2 hPa 0,0 l/m SW 0,00 h 0 W/m 15,8 km/h (3 Bft)
21.12.2018 00:00 4,2 C 90 % 1020,0 hPa 0,0 l/m W-SW 0,00 h 0 W/m 18,1 km/h (3 Bft)
21.12.2018 01:00 4,3 C 89 % 1020,1 hPa 0,0 l/m SW 0,00 h 0 W/m 17,6 km/h (3 Bft)
21.12.2018 02:00 4,1 C 90 % 1019,9 hPa 0,0 l/m SW 0,00 h 0 W/m 14,9 km/h (3 Bft)
21.12.2018 03:00 3,8 C 91 % 1019,5 hPa 0,0 l/m SW 0,00 h 0 W/m 13,2 km/h (3 Bft)
21.12.2018 04:00 4,1 C 91 % 1019,0 hPa 0,0 l/m SW 0,00 h 0 W/m 15,2 km/h (3 Bft)
21.12.2018 05:00 4,3 C 89 % 1018,1 hPa 0,0 l/m SW 0,00 h 0 W/m 18,1 km/h (3 Bft)
21.12.2018 06:00 4,3 C 89 % 1017,2 hPa 0,0 l/m SW 0,00 h 0 W/m 18,6 km/h (3 Bft)
21.12.2018 07:00 4,4 C 86 % 1016,7 hPa 0,0 l/m SW 0,00 h 0 W/m 15,4 km/h (3 Bft)
21.12.2018 08:00 4,4 C 84 % 1016,5 hPa 0,0 l/m SW 0,00 h 8 W/m 13,8 km/h (3 Bft)
21.12.2018 09:00 5,0 C 86 % 1016,2 hPa 0,0 l/m W-SW 0,00 h 16 W/m 25,9 km/h (4 Bft)
21.12.2018 10:00 4,7 C 90 % 1016,0 hPa 0,2 l/m SW 0,00 h 24 W/m 28,3 km/h (4 Bft)
21.12.2018 11:00 4,6 C 94 % 1015,0 hPa 0,2 l/m SW 0,00 h 60 W/m 30,6 km/h (5 Bft)
21.12.2018 12:00 5,3 C 92 % 1013,6 hPa 0,2 l/m W-SW 0,00 h 50 W/m 33,7 km/h (5 Bft)
21.12.2018 13:00 5,3 C 93 % 1013,0 hPa 0,4 l/m SW 0,00 h 31 W/m 33,5 km/h (5 Bft)
21.12.2018 14:00 5,7 C 95 % 1013,0 hPa 0,6 l/m W-SW 0,00 h 17 W/m 29,1 km/h (5 Bft)
21.12.2018 15:00 6,5 C 96 % 1013,1 hPa 0,4 l/m W-SW 0,00 h 10 W/m 37,0 km/h (5 Bft)
21.12.2018 16:00 7,1 C 95 % 1013,5 hPa 0,0 l/m W 0,00 h 6 W/m 38,3 km/h (5 Bft)
21.12.2018 17:00 7,2 C 95 % 1014,2 hPa 0,0 l/m W-SW 0,00 h 0 W/m 39,8 km/h (6 Bft)
21.12.2018 18:00 7,5 C 95 % 1014,4 hPa 0,0 l/m W-SW 0,00 h 0 W/m 38,6 km/h (5 Bft)
21.12.2018 19:00 7,6 C 96 % 1014,3 hPa 0,0 l/m W-SW 0,00 h 0 W/m 34,1 km/h (5 Bft)
21.12.2018 20:00 7,9 C 96 % 1014,4 hPa 0,0 l/m W-SW 0,00 h 0 W/m 27,9 km/h (4 Bft)
21.12.2018 21:00 8,3 C 95 % 1014,4 hPa 0,0 l/m W-SW 0,00 h 0 W/m 29,7 km/h (5 Bft)
21.12.2018 22:00 8,6 C 94 % 1014,1 hPa 0,0 l/m W-SW 0,00 h 0 W/m 37,5 km/h (5 Bft)
21.12.2018 23:00 8,6 C 94 % 1014,1 hPa 0,0 l/m W-SW 0,00 h 0 W/m 34,7 km/h (5 Bft)
22.12.2018 00:00 8,6 C 96 % 1014,0 hPa 0,0 l/m W-SW 0,00 h 0 W/m 26,1 km/h (4 Bft)
22.12.2018 01:00 8,8 C 97 % 1013,9 hPa 0,4 l/m SW 0,00 h 0 W/m 26,6 km/h (4 Bft)
22.12.2018 02:00 9,0 C 97 % 1013,9 hPa 0,0 l/m W-SW 0,00 h 0 W/m 29,4 km/h (5 Bft)
22.12.2018 03:00 9,3 C 96 % 1014,0 hPa 0,0 l/m W-SW 0,00 h 0 W/m 32,0 km/h (5 Bft)
22.12.2018 04:00 9,7 C 94 % 1014,0 hPa 0,0 l/m SW 0,00 h 0 W/m 33,4 km/h (5 Bft)
22.12.2018 05:00 9,5 C 94 % 1014,0 hPa 0,4 l/m W-SW 0,00 h 0 W/m 29,9 km/h (5 Bft)
22.12.2018 06:00 9,4 C 94 % 1014,2 hPa 0,0 l/m W 0,00 h 0 W/m 31,5 km/h (5 Bft)
22.12.2018 07:00 9,5 C 92 % 1014,7 hPa 0,2 l/m W 0,00 h 0 W/m 33,5 km/h (5 Bft)
22.12.2018 08:00 9,3 C 92 % 1015,5 hPa 0,0 l/m W 0,00 h 14 W/m 31,2 km/h (5 Bft)
22.12.2018 09:00 8,9 C 92 % 1016,6 hPa 0,0 l/m W 0,00 h 59 W/m 31,8 km/h (5 Bft)
22.12.2018 10:00 9,1 C 89 % 1017,3 hPa 0,0 l/m W 0,08 h 122 W/m 25,5 km/h (4 Bft)
22.12.2018 11:00 9,1 C 87 % 1017,2 hPa 0,0 l/m W-SW 0,00 h 115 W/m 31,2 km/h (5 Bft)
22.12.2018 12:00 9,4 C 83 % 1017,3 hPa 0,0 l/m W 0,00 h 131 W/m 24,3 km/h (4 Bft)
22.12.2018 13:00 9,8 C 80 % 1017,7 hPa 0,0 l/m W 0,08 h 142 W/m 24,3 km/h (4 Bft)
22.12.2018 14:00 9,9 C 78 % 1018,5 hPa 0,0 l/m W-SW 0,25 h 97 W/m 24,8 km/h (4 Bft)
22.12.2018 15:00 9,5 C 83 % 1018,6 hPa 0,0 l/m W-SW 0,00 h 22 W/m 16,9 km/h (3 Bft)
22.12.2018 16:00 9,1 C 85 % 1019,0 hPa 0,0 l/m W 0,00 h 8 W/m 18,2 km/h (3 Bft)
22.12.2018 17:00 8,7 C 86 % 1019,5 hPa 0,0 l/m W-SW 0,00 h 0 W/m 20,5 km/h (4 Bft)
22.12.2018 18:00 8,2 C 87 % 1020,3 hPa 0,0 l/m W-SW 0,00 h 0 W/m 17,6 km/h (3 Bft)
22.12.2018 19:00 7,7 C 89 % 1021,0 hPa 0,0 l/m W-SW 0,00 h 0 W/m 10,5 km/h (2 Bft)
22.12.2018 20:00 7,3 C 90 % 1021,2 hPa 0,0 l/m W-SW 0,00 h 0 W/m 9,5 km/h (2 Bft)
22.12.2018 21:00 7,5 C 90 % 1021,6 hPa 0,0 l/m W-SW 0,00 h 0 W/m 14,6 km/h (3 Bft)
22.12.2018 22:00 7,9 C 89 % 1021,8 hPa 0,0 l/m W-SW 0,00 h 0 W/m 16,0 km/h (3 Bft)
22.12.2018 23:00 7,8 C 89 % 1022,0 hPa 0,0 l/m W-SW 0,00 h 0 W/m 17,3 km/h (3 Bft)
23.12.2018 00:00 8,0 C 90 % 1021,9 hPa 0,0 l/m W-SW 0,00 h 0 W/m 18,4 km/h (3 Bft)
23.12.2018 01:00 7,8 C 91 % 1022,7 hPa 2,2 l/m W-NW 0,00 h 0 W/m 18,5 km/h (3 Bft)
23.12.2018 02:00 6,6 C 94 % 1023,1 hPa 0,4 l/m W 0,00 h 0 W/m 8,9 km/h (2 Bft)
23.12.2018 03:00 6,4 C 95 % 1023,4 hPa 0,0 l/m W 0,00 h 0 W/m 1,6 km/h (1 Bft)
23.12.2018 04:00 6,3 C 96 % 1023,4 hPa 0,0 l/m N 0,00 h 0 W/m 0,5 km/h (0 Bft)
23.12.2018 05:00 5,7 C 95 % 1023,5 hPa 0,0 l/m N 0,00 h 0 W/m 0,0 km/h (0 Bft)
23.12.2018 06:00 5,3 C 96 % 1023,6 hPa 0,0 l/m W 0,00 h 0 W/m 4,3 km/h (1 Bft)
23.12.2018 07:00 5,7 C 97 % 1023,8 hPa 0,0 l/m W 0,00 h 0 W/m 8,4 km/h (2 Bft)
23.12.2018 08:00 6,1 C 97 % 1024,2 hPa 0,0 l/m SW 0,00 h 13 W/m 10,2 km/h (2 Bft)
23.12.2018 09:00 6,2 C 97 % 1024,5 hPa 0,0 l/m SW 0,00 h 32 W/m 10,2 km/h (2 Bft)
23.12.2018 10:00 6,9 C 97 % 1024,7 hPa 0,0 l/m SW 0,00 h 43 W/m 16,2 km/h (3 Bft)
23.12.2018 11:00 7,4 C 95 % 1023,8 hPa 0,0 l/m SW 0,00 h 80 W/m 14,9 km/h (3 Bft)
23.12.2018 12:00 7,9 C 92 % 1022,5 hPa 0,0 l/m W-SW 0,00 h 77 W/m 16,8 km/h (3 Bft)
23.12.2018 13:00 7,9 C 90 % 1021,3 hPa 0,0 l/m W-SW 0,00 h 47 W/m 14,8 km/h (3 Bft)
23.12.2018 14:00 7,4 C 93 % 1020,2 hPa 0,2 l/m W-SW 0,00 h 31 W/m 17,8 km/h (3 Bft)
23.12.2018 15:00 7,2 C 95 % 1018,9 hPa 0,2 l/m SW 0,00 h 15 W/m 18,1 km/h (3 Bft)
23.12.2018 16:00 7,2 C 97 % 1018,0 hPa 0,0 l/m SW 0,00 h 5 W/m 22,0 km/h (4 Bft)
23.12.2018 17:00 7,5 C 97 % 1017,4 hPa 1,0 l/m SW 0,00 h 0 W/m 25,2 km/h (4 Bft)
23.12.2018 18:00 8,1 C 98 % 1017,2 hPa 0,6 l/m W-SW 0,00 h 0 W/m 31,5 km/h (5 Bft)
23.12.2018 19:00 8,7 C 98 % 1016,9 hPa 0,0 l/m SW 0,00 h 0 W/m 30,4 km/h (5 Bft)
23.12.2018 20:00 9,1 C 97 % 1016,7 hPa 0,2 l/m W-SW 0,00 h 0 W/m 33,3 km/h (5 Bft)
23.12.2018 21:00 9,4 C 97 % 1016,8 hPa 0,2 l/m W-SW 0,00 h 0 W/m 31,8 km/h (5 Bft)
23.12.2018 22:00 9,5 C 97 % 1016,6 hPa 0,2 l/m W-SW 0,00 h 0 W/m 29,8 km/h (5 Bft)
23.12.2018 23:00 9,7 C 97 % 1016,1 hPa 0,0 l/m W-SW 0,00 h 0 W/m 33,5 km/h (5 Bft)
Min-Datum _ 18.12.18 22.12.18 21.12.18 - - - - 17.12.18
_ Min-Zeit 08:15 14:00 14:45 - - - - 00:00
Minimum _ -2,8 C 77 % 1012,7 hPa - - - - 0,0 km/h (0 Bft)
Max-Datum _ 22.12.18 17.12.18 17.12.18 23.12.18 - 17.12.18 18.12.18 21.12.18
_ Max-Zeit 14:05 08:45 23:15 01:35 - 12:50 12:15 16:40
Maximum _ 10,1 C 100 % 1029,0 hPa 2,2 l/m - 0,08 h 429 W/m 46,7 km/h
W-SW (6 Bft)
Durchschnitt _ 3,6 C 95 % 1019,7 hPa #10,2 l/m SW #9:50 h 78 W/m 12,9 km/h (3 Bft)